Home > Weather > Kazan > Past weeks

Flag for Russia Past Weather in Kazan, Russia — Yesterday and Last 2 Weeks

Now
70 °F

Clear.


Feels Like: 70 °F
Forecast: 63 / 89 °F
Wind: 6 mph from Northeast

Location: Kazan'

Current Time: Jul 30, 2016 at 12:42:13 AM

Latest Report: Jul 30, 2016 at 12:00 AM


Visibility: 10 mi

Pressure: 29.89 "Hg

Humidity: 73%

Dew Point: 61 °F

Location of KazanLocation

Past Weather in Kazan — Graph

°F

Kazan Temperature Yesterday

Maximum temperature yesterday: 86 °F (at 3:30 PM)
Minimum temperature yesterday: 59 °F (at 4:00 AM)
Average temperature yesterday: 75 °F

High & Low Weather Summary for the Past Weeks

 TemperatureHumidityPressure
High88 °F (Jul 24, 1:30 PM)94% (Jul 15, 1:30 AM)30.04 "Hg (Jul 15, 1:30 AM)
Low57 °F (Jul 26, 3:00 AM)25% (Jul 26, 2:30 PM)29.83 "Hg (Jul 14, 11:00 PM)
Average74 °F56%29.91 "Hg
* Reported Jul 14 11:00 PM — Jul 29 11:30 PM, Kazan, Weather by CustomWeather, © 2016

Note: Actual official high and low records may vary slightly from our data, if they occured in-between our weather recording intervals... More about our weather records

Advertising

Kazan Weather History for the Previous 24 Hours

Scroll right to see more
 ConditionsComfort  
Time TempWeatherWind HumidityBarometerVisibility
11:30 PM
Fri, Jul 29
68 °FClear.6 mph78%29.89 "Hg10 mi
11:00 PM70 °FClear.6 mph73%29.89 "Hg10 mi
10:30 PM70 °FClear.6 mph73%29.89 "Hg10 mi
10:00 PM72 °FClear.6 mph69%29.89 "Hg10 mi
9:30 PM72 °FClear.6 mph69%29.86 "Hg10 mi
9:00 PM73 °FClear.3 mph65%29.86 "Hg10 mi
8:30 PM75 °FClear.3 mph61%29.86 "Hg10 mi
8:00 PM75 °FPassing clouds.6 mph57%29.86 "HgN/A
7:30 PM77 °FPassing clouds.8 mph54%29.86 "HgN/A
7:00 PM79 °FPassing clouds.8 mph51%29.86 "HgN/A
6:30 PM81 °FPassing clouds.8 mph45%29.86 "HgN/A
6:00 PM82 °FSunny.10 mph40%29.86 "Hg10 mi
5:30 PM84 °FPassing clouds.10 mph37%29.86 "HgN/A
5:00 PM86 °FSunny.10 mph33%29.83 "Hg10 mi
4:30 PM86 °FSunny.10 mph33%29.83 "Hg10 mi
4:00 PM86 °FPassing clouds.8 mph33%29.86 "HgN/A
3:30 PM86 °FPassing clouds.8 mph33%29.86 "HgN/A
3:00 PM84 °FPassing clouds.6 mph35%29.86 "HgN/A
2:30 PM84 °FPassing clouds.6 mph37%29.86 "HgN/A
2:00 PM84 °FPassing clouds.8 mph37%29.86 "HgN/A
1:30 PM84 °FPassing clouds.8 mph37%29.86 "HgN/A
1:00 PM84 °FScattered clouds.6 mph40%29.86 "HgN/A
12:30 PM81 °FPassing clouds.10 mph48%29.89 "HgN/A
12:00 PM81 °FPassing clouds.6 mph42%29.89 "HgN/A
11:30 AM82 °FScattered clouds.8 mph40%29.89 "HgN/A
11:00 AM82 °FScattered clouds.6 mph40%29.89 "HgN/A
10:30 AM81 °FScattered clouds.6 mph45%29.89 "HgN/A
10:00 AM81 °FPassing clouds.6 mph45%29.89 "HgN/A
9:30 AM79 °FPassing clouds.6 mph51%29.89 "HgN/A
9:00 AM79 °FPassing clouds.3 mph51%29.89 "HgN/A
8:30 AM77 °FSunny.3 mph57%29.92 "Hg10 mi
8:00 AM75 °FPassing clouds.6 mph61%29.89 "HgN/A
7:30 AM73 °FPassing clouds.3 mph65%29.92 "HgN/A
7:00 AM72 °FPassing clouds.6 mph73%29.92 "HgN/A
6:30 AM70 °FSunny.6 mph78%29.89 "Hg10 mi
6:00 AM66 °FPassing clouds.6 mph83%29.89 "HgN/A
5:30 AM64 °FClear.6 mph94%29.89 "Hg6 mi
5:00 AM63 °FClear.1 mph94%29.89 "Hg4 mi
4:30 AM61 °FFog.1 mph94%29.89 "Hg3 mi
4:00 AM59 °FFog.1 mph94%29.89 "Hg2 mi
3:30 AM61 °FFog.3 mph94%29.89 "Hg1 mi
3:00 AM63 °FFog.1 mph94%29.89 "Hg3 mi
2:30 AM63 °FClear.1 mph88%29.89 "Hg4 mi
2:00 AM63 °FClear.3 mph88%29.89 "Hg4 mi
1:30 AM64 °FClear.1 mph83%29.89 "Hg6 mi
1:00 AM64 °FClear.3 mph83%29.89 "Hg6 mi
12:30 AM66 °FClear.3 mph78%29.89 "Hg10 mi
12:00 AM66 °FPassing clouds.3 mph78%29.89 "HgN/A
Weather by CustomWeather, © 2016

See weather overviewHow to use our weather pages